[[{"header":{"parameterUnit":"m.s-1","parameterCategory":1,"la1":30.2991,"la2":30.254,"lo1":-89.0895,"lo2":-89.0444,"dy":0.0017,"dx":0.0017,"nx":28,"ny":28,"refTime":"2023-10-29T03:00:00:Z","depth":0,"parameterNumber":2,"parameterNumberName":"U-component_of_WINDS"},"data":[0,0,0,0,0,0,0,0,0,0,0,0,0,0,0,0,0,0,0,0,0,0,0,0,0,0,0,0,0,0,0,0,0,0,0,0,0,0,0,0,0,0,0,0,0,0,0,0,0,0,0,0,0,0,0,0,0,0,-2.6213,-2.6214,0,-2.6285,-2.6286,-2.6286,-2.6254,-2.6252,-2.6251,-2.6249,-2.6326,-2.633,-2.6333,0,0,0,0,0,0,0,0,0,0,0,0,0,-2.6053,-2.6057,-2.6213,-2.6214,-2.6215,-2.6285,-2.6286,-2.6287,-2.6255,-2.6252,-2.625,-2.6248,-2.6325,-2.6329,-2.6334,0,0,0,0,0,0,0,0,0,0,0,0,0,-2.6124,-2.6058,-2.6213,-2.6207,-2.6207,-2.6284,-2.6286,-2.6287,-2.6255,-2.6252,-2.625,-2.6247,-2.6323,-2.6329,-2.6334,-2.6422,0,0,-2.6351,-2.6354,0,0,0,0,0,0,0,0,-2.612,-2.613,-2.6207,-2.6208,-2.6208,-2.6258,-2.6258,-2.6332,-2.6256,-2.6237,-2.6249,-2.6246,-2.6306,-2.6313,-2.6332,-2.6426,-2.6429,-2.6352,-2.6355,-2.6358,-2.6359,0,0,0,0,0,0,0,-2.6115,-2.6126,-2.6241,-2.6208,-2.6209,-2.6203,-2.621,-2.6272,-2.6286,-2.6238,-2.6236,-2.6245,-2.6305,-2.6327,-2.6334,-2.643,-2.6352,-2.6357,-2.636,-2.6362,-2.6603,-2.6606,0,0,0,0,0,0,-2.611,-2.6123,-2.6239,-2.6243,-2.6156,-2.6208,-2.6216,-2.6244,-2.6285,-2.6288,-2.6247,-2.6243,-2.6319,-2.6327,-2.6336,-2.6442,-2.6358,-2.6363,-2.6366,-2.66,-2.6604,-2.6607,0,0,0,0,0,0,-2.6106,-2.612,-2.6236,-2.6183,-2.6197,-2.6213,-2.6246,-2.6247,-2.6268,-2.6291,-2.6294,-2.6266,-2.6317,-2.6328,-2.6401,-2.6445,-2.6365,-2.637,-2.6596,-2.6601,-2.6605,-2.6655,0,0,0,0,0,0,-2.6102,-2.6119,-2.6151,-2.6183,-2.62,-2.6298,-2.6249,-2.6251,-2.6278,-2.6273,-2.631,-2.6313,-2.6316,-2.6393,-2.6407,-2.6451,-2.6375,-2.6592,-2.6598,-2.6604,-2.665,-2.6661,-2.6671,0,0,0,0,0,-2.6096,-2.6163,-2.6153,-2.6167,-2.624,-2.6301,-2.631,-2.6311,-2.6281,-2.6314,-2.633,-2.6312,-2.6438,-2.6401,-2.6416,-2.6462,-2.659,-2.6597,-2.6603,-2.6645,-2.6659,-2.667,0,0,0,0,0,0,-2.6135,-2.6167,-2.6156,-2.6235,-2.6265,-2.6295,-2.6337,-2.6325,-2.6365,-2.6359,-2.6359,-2.6368,-2.6444,-2.6461,-2.6419,-2.6551,-2.651,-2.652,-2.6536,-2.655,-2.656,-2.6553,-2.6379,0,0,0,0,0,-2.6153,-2.6199,-2.6224,-2.6291,-2.6307,-2.632,-2.6346,-2.6344,-2.6376,-2.6389,-2.641,-2.6443,-2.6491,-2.6521,-2.6566,-2.6654,-2.6662,-2.6693,-2.6704,-2.6712,-2.672,-2.6769,-2.6784,-2.6629,-2.6629,-2.6629,0,0,-2.619,-2.6213,-2.6242,-2.63,-2.6323,-2.6372,-2.6331,-2.6384,-2.642,-2.6398,-2.6467,-2.6485,-2.6522,-2.6603,-2.6639,-2.6619,-2.6766,-2.6721,-2.6727,-2.6731,-2.6778,-2.6793,-2.6806,-2.6634,-2.6633,-2.6632,0,0,-2.6282,-2.6304,-2.6362,-2.6387,-2.6423,-2.6432,-2.6446,-2.6479,-2.6489,-2.6559,-2.6544,-2.6589,-2.667,-2.6698,-2.6723,-2.683,-2.6815,-2.6845,-2.6898,-2.6946,-2.6958,-2.6969,-2.7007,-2.7021,-2.6853,-2.6854,-2.6854,0,-2.6323,-2.6394,-2.6394,-2.6449,-2.6476,-2.6458,-2.6519,-2.6544,-2.6593,-2.6613,-2.659,-2.6693,-2.6717,-2.6804,-2.6831,-2.6852,-2.6869,-2.6839,-2.6956,-2.6967,-2.6977,-2.7014,-2.7028,-2.6857,-2.6856,-2.6856,-2.6856,0,-2.6444,-2.6494,-2.6538,-2.6585,-2.6617,-2.6675,-2.6685,-2.6719,-2.6715,-2.6727,-2.68,-2.6829,-2.688,-2.6901,-2.6898,-2.699,-2.6976,-2.6955,-2.6913,-2.6995,-2.7029,-2.7044,-2.6861,-2.686,-2.6859,-2.6858,0,0,-2.6558,-2.6608,-2.6623,-2.6646,-2.6686,-2.6726,-2.6785,-2.6834,-2.6862,-2.6899,-2.6948,-2.7019,-2.7001,-2.7029,-2.703,-2.7072,-2.7156,-2.7046,-2.7047,-2.7065,-2.726,-2.7274,-2.729,-2.7148,-2.7151,-2.7153,-2.7257,0,-2.6652,-2.6752,-2.6756,-2.6848,-2.6895,-2.6881,-2.6933,-2.6964,-2.6978,-2.7022,-2.7038,-2.7088,-2.706,-2.7077,-2.7119,-2.7137,-2.7195,-2.713,-2.7195,-2.7197,-2.7184,-2.7308,-2.7323,-2.7419,-2.727,-2.7272,-2.7274,0,-2.6774,-2.6814,-2.691,-2.6946,-2.6967,-2.7012,-2.7059,-2.7101,-2.7138,-2.7145,-2.7179,-2.7174,-2.7237,-2.7195,-2.7282,-2.7237,-2.7265,-2.7279,-2.7283,-2.7287,-2.7239,-2.7315,-2.745,-2.7464,-2.7295,-2.7293,-2.7292,0,-2.6847,-2.6926,-2.6994,-2.7013,-2.7057,-2.709,-2.711,-2.7144,-2.7175,-2.7217,-2.7237,-2.7287,-2.7314,-2.7353,-2.7363,-2.7332,-2.7451,-2.7409,-2.7459,-2.7459,-2.7482,-2.748,-2.7622,-2.7503,-2.7503,-2.7503,-2.7502,0,-2.6951,-2.701,-2.7027,-2.7069,-2.7136,-2.7142,-2.7209,-2.7227,-2.7259,-2.7306,-2.7299,-2.7343,-2.7354,-2.7402,-2.7411,-2.7482,-2.7495,-2.7503,-2.7505,-2.7503,-2.7502,-2.7519,-2.7513,-2.7507,-2.7506,-2.7505,-2.7504,0,-2.7042,-2.7056,-2.7129,-2.7166,-2.7176,-2.7225,-2.7257,-2.7298,-2.7313,-2.7372,-2.7387,-2.741,-2.7466,-2.748,-2.7548,-2.7554,-2.7637,-2.7633,-2.7624,-2.7624,-2.7673,-2.7667,-2.7829,-2.7851,-2.7719,-2.772,-2.7721,0,-2.7106,-2.7151,-2.7193,-2.7224,-2.7245,-2.7294,-2.7326,-2.7335,-2.7368,-2.7416,-2.7452,-2.7507,-2.7551,-2.7642,-2.7665,-2.7718,-2.7714,-2.7768,-2.7722,-2.7719,-2.7714,-2.7711,-2.7716,-2.7775,-2.7777,-2.7778,-2.7779,0,-2.7218,-2.7223,-2.7268,-2.7316,-2.7353,-2.7392,-2.7429,-2.7455,-2.747,-2.7508,-2.7565,-2.7599,-2.7668,-2.7724,-2.7777,-2.78,-2.7793,-2.7794,-2.7808,-2.7805,-2.7798,-2.7802,-2.7646,-2.7789,-2.7788,-2.7787,-2.7787,-2.7786,-2.7297,-2.7337,-2.7374,-2.7424,-2.7454,-2.7489,-2.753,-2.7551,-2.7598,-2.7653,-2.7657,-2.7719,-2.7759,-2.783,-2.7857,-2.7907,-2.7891,-2.7911,-2.7916,-2.7921,-2.7925,-2.7792,-2.7917,-2.7916,-2.7916,-2.7916,-2.7916,0,-2.7408,-2.7431,-2.7478,-2.753,-2.7571,-2.7561,-2.7603,-2.7638,-2.7692,-2.7729,-2.7774,-2.784,-2.7895,-2.7925,-2.798,-2.8014,-2.8013,-2.8029,-2.8025,-2.8031,-2.7936,-2.7918,-2.8029,-2.8029,-2.8029,-2.8029,-2.8029,-2.8029,-2.747,-2.7538,-2.7549,-2.7633,-2.7657,-2.7716,-2.7741,-2.7775,-2.7805,-2.7879,-2.7924,-2.7943,-2.7979,-2.8037,-2.8087,-2.8095,-2.8115,-2.8133,-2.8139,-2.8049,-2.8037,-2.8026,-2.8009,-2.8138,-2.8138,-2.8229,-2.823,-2.8231]},{"header":{"parameterUnit":"m.s-1","parameterCategory":1,"la1":30.2991,"la2":30.254,"lo1":-89.0895,"lo2":-89.0444,"dy":0.0017,"dx":0.0017,"nx":28,"ny":28,"refTime":"2023-10-29T03:00:00:Z","depth":0,"parameterNumber":3,"parameterNumberName":"V-component_of_WINDS"},"data":[0,0,0,0,0,0,0,0,0,0,0,0,0,0,0,0,0,0,0,0,0,0,0,0,0,0,0,0,0,0,0,0,0,0,0,0,0,0,0,0,0,0,0,0,0,0,0,0,0,0,0,0,0,0,0,0,0,0,1.4524,1.4525,0,1.4584,1.4585,1.4586,1.4642,1.4643,1.4643,1.4644,1.4703,1.4704,1.4704,0,0,0,0,0,0,0,0,0,0,0,0,0,1.4457,1.4458,1.4524,1.4525,1.4525,1.4584,1.4585,1.4586,1.4642,1.4643,1.4644,1.4644,1.4702,1.4703,1.4705,0,0,0,0,0,0,0,0,0,0,0,0,0,1.4499,1.4458,1.4524,1.4561,1.4565,1.4584,1.4585,1.4586,1.4642,1.4643,1.4644,1.4645,1.4702,1.4703,1.4705,1.4692,0,0,1.4709,1.4709,0,0,0,0,0,0,0,0,1.4496,1.4501,1.4554,1.4558,1.4563,1.4607,1.4583,1.4621,1.4642,1.4612,1.4644,1.4645,1.467,1.4674,1.4683,1.4694,1.4697,1.4709,1.471,1.471,1.4711,0,0,0,0,0,0,0,1.4493,1.4499,1.4548,1.4555,1.456,1.4574,1.4581,1.4591,1.4634,1.4615,1.4619,1.4626,1.4672,1.4681,1.4684,1.4698,1.4709,1.471,1.4711,1.4711,1.4705,1.4704,0,0,0,0,0,0,1.4485,1.4496,1.4546,1.455,1.4531,1.4574,1.4582,1.4591,1.4634,1.4642,1.4625,1.4628,1.4678,1.4683,1.4687,1.4676,1.471,1.4712,1.4712,1.4706,1.4705,1.4704,0,0,0,0,0,0,1.4483,1.4489,1.4543,1.4524,1.4532,1.4574,1.4584,1.4592,1.4601,1.4642,1.465,1.4626,1.4679,1.4685,1.4691,1.4679,1.4712,1.4713,1.4707,1.4706,1.4704,1.4653,0,0,0,0,0,0,1.4481,1.4488,1.4483,1.4524,1.4533,1.4546,1.4584,1.4593,1.4604,1.4609,1.4645,1.4652,1.4681,1.4689,1.4692,1.4681,1.4714,1.4709,1.4707,1.4705,1.4656,1.465,1.4645,0,0,0,0,0,1.4478,1.4465,1.4482,1.4488,1.4528,1.4545,1.4551,1.4585,1.4603,1.4598,1.4625,1.4651,1.468,1.4689,1.4693,1.4682,1.4709,1.4707,1.4705,1.4658,1.4651,1.4645,0,0,0,0,0,0,1.4419,1.447,1.4491,1.449,1.4513,1.4555,1.455,1.4576,1.4593,1.4597,1.4638,1.4646,1.4648,1.4666,1.4675,1.4674,1.4698,1.4697,1.4661,1.4655,1.4649,1.4644,1.4716,0,0,0,0,0,1.4407,1.4417,1.4461,1.4456,1.4467,1.4507,1.4516,1.4541,1.4566,1.4575,1.4602,1.4625,1.464,1.4649,1.4664,1.466,1.4669,1.4655,1.4649,1.4644,1.4642,1.4643,1.4637,1.4697,1.4697,1.4697,0,0,1.4379,1.4409,1.4412,1.4445,1.4466,1.4476,1.4514,1.4523,1.4531,1.4576,1.4584,1.4605,1.4634,1.4635,1.4637,1.465,1.4628,1.4641,1.4637,1.4638,1.464,1.4634,1.4629,1.4695,1.4695,1.4696,0,0,1.4335,1.4358,1.4358,1.4379,1.4411,1.4439,1.4439,1.4478,1.4494,1.4503,1.4538,1.4549,1.4573,1.4592,1.4605,1.4574,1.4598,1.4578,1.4548,1.4548,1.4543,1.4539,1.4529,1.4524,1.4576,1.4576,1.4575,0,1.4297,1.4314,1.4354,1.4361,1.4375,1.442,1.442,1.4438,1.4473,1.4482,1.4497,1.453,1.4552,1.456,1.4553,1.4562,1.4563,1.4572,1.4541,1.4538,1.4534,1.4525,1.452,1.4573,1.4573,1.4573,1.4574,0,1.4266,1.4277,1.4273,1.4308,1.4322,1.4325,1.4366,1.4375,1.44,1.4426,1.4436,1.4465,1.4489,1.4493,1.4516,1.4504,1.4512,1.4534,1.4559,1.4525,1.4517,1.4513,1.4569,1.457,1.4571,1.4571,0,0,1.4182,1.4242,1.424,1.4258,1.4299,1.4309,1.4315,1.434,1.4348,1.4372,1.4378,1.44,1.4422,1.4436,1.4463,1.4463,1.4438,1.4486,1.4487,1.4476,1.4428,1.4411,1.4406,1.4456,1.4455,1.4455,1.4426,0,1.4144,1.4159,1.4197,1.42,1.4212,1.4257,1.4264,1.429,1.4315,1.4329,1.4357,1.4372,1.4399,1.4409,1.4412,1.444,1.4429,1.4443,1.4462,1.4462,1.4453,1.4402,1.4383,1.4354,1.4423,1.4423,1.4422,0,1.41,1.4124,1.4129,1.4173,1.4179,1.4184,1.4212,1.4225,1.4256,1.4275,1.4294,1.4324,1.4335,1.436,1.4375,1.4384,1.4395,1.4411,1.4411,1.4413,1.4439,1.4402,1.4345,1.4341,1.4417,1.4418,1.4418,0,1.4039,1.4072,1.408,1.4094,1.4145,1.4148,1.4169,1.4202,1.4215,1.424,1.4249,1.4274,1.4287,1.4305,1.4342,1.4357,1.4354,1.4381,1.4369,1.4368,1.4365,1.4364,1.4309,1.4373,1.4373,1.4373,1.4373,0,1.3992,1.3993,1.4054,1.4058,1.4062,1.4107,1.4109,1.4135,1.4164,1.4175,1.4216,1.4225,1.4274,1.4289,1.4318,1.4327,1.4333,1.4348,1.4356,1.4344,1.4342,1.435,1.4353,1.4372,1.4372,1.4373,1.4373,0,1.3922,1.3963,1.3975,1.4024,1.4037,1.4037,1.4079,1.4086,1.4116,1.4129,1.4135,1.4181,1.4201,1.4241,1.4271,1.4291,1.4294,1.4307,1.4283,1.4288,1.4274,1.4274,1.4221,1.4216,1.4283,1.4283,1.4282,0,1.3889,1.3891,1.3942,1.3953,1.3973,1.399,1.4005,1.4051,1.4065,1.4104,1.4106,1.413,1.4151,1.4182,1.4218,1.4243,1.4257,1.4237,1.4261,1.425,1.4257,1.4256,1.4257,1.423,1.423,1.4229,1.4228,0,1.3825,1.3846,1.3867,1.3896,1.3913,1.3937,1.3964,1.397,1.4022,1.4036,1.4059,1.4076,1.4109,1.4133,1.4164,1.4186,1.4215,1.4221,1.422,1.4207,1.4193,1.42,1.4268,1.4221,1.4222,1.4222,1.4223,1.4223,1.3772,1.3778,1.3815,1.3838,1.3863,1.3888,1.3898,1.393,1.395,1.3982,1.4008,1.4029,1.4064,1.4108,1.4129,1.4146,1.416,1.4158,1.4157,1.4156,1.4151,1.4192,1.4152,1.4152,1.4153,1.4153,1.4153,0,1.3711,1.3738,1.3759,1.3796,1.3814,1.3844,1.3876,1.3889,1.3907,1.3938,1.3959,1.3987,1.4011,1.4051,1.4079,1.4085,1.4099,1.409,1.409,1.4095,1.4137,1.4135,1.4078,1.4078,1.4078,1.4078,1.4078,1.4078,1.3681,1.3692,1.3718,1.3743,1.3771,1.3793,1.3809,1.3832,1.3858,1.3887,1.3908,1.3935,1.397,1.4001,1.4025,1.4037,1.4045,1.4031,1.4047,1.4085,1.4091,1.4098,1.4097,1.4033,1.4033,1.4003,1.4003,1.4003]}]]